Regional Weather Roundup
Issued by NWS Newport/Morehead, NC

Current Version | Previous Version | Graphics & Text | Print | Product List | Glossary On
Versions: 1 2 3 4 5 6 7 8 9 10 11 12 13 14 15 16 17 18 19 20 21 22 23 24 25 26 27 28 29 30 31 32 33 34 35 36 37 38 39 40 41 42 43 44 45 46 47 48 49 50
000 ASUS42 KMHX 200110 RWRMHX WEATHER ROUNDUP FOR EASTERN NORTH CAROLINA NATIONAL WEATHER SERVICE NEWPORT/MOREHEAD CITY NC 900 PM EDT SUN OCT 19 2014 NOTE: "FAIR" INDICATES FEW OR NO CLOUDS BELOW 12,000 FEET WITH NO SIGNIFICANT WEATHER AND/OR OBSTRUCTIONS TO VISIBILITY NCZ015>017-031-032-045>047-102-103-200200- NORTH COAST CITY SKY/WX TMP DP RH WIND PRES REMARKS EDENTON CLEAR 47 44 87 CALM 30.12S ELIZABETH CITY CLEAR 49 40 71 CALM 30.12R KITTY HAWK CLEAR 56 34 44 NW6 30.10S MANTEO CLEAR 58 36 43 NW7 30.11S $$ NCZ045>047-081-094-103-104-200200- CENTRAL COAST CITY SKY/WX TMP DP RH WIND PRES REMARKS FRISCO CLEAR 59 38 45 VRB5 30.11R SWANQUARTER N/A 52 N/A N/A N1 30.09R $$ NCZ095-097-098-100-101-200200- SOUTHERN COAST CITY SKY/WX TMP DP RH WIND PRES REMARKS BEAUFORT CLEAR 53 44 71 NE3 30.11S CEDAR ISLAND N/A 63 N/A N/A NW13 30.15R JACKSONVILLE CLEAR 51 48 89 CALM 30.12R PINEY ISLAND CLEAR 61 43 51 N7 30.11R WILMINGTON CLEAR 53 50 89 CALM 30.11R $$ NCZ011>013-027>030-043-044-078>080-089-090>093-098-200200- COASTAL PLAIN CITY SKY/WX TMP DP RH WIND PRES REMARKS AHOSKIE CLEAR 45 43 93 CALM 30.12S CLINTON CLEAR 50 48 93 CALM 30.13R ELIZABETHTOWN CLEAR 52 47 83 CALM 30.12R GOLDSBORO CLEAR 51 50 97 CALM 30.11R GREENVILLE CLEAR 48 46 93 CALM 30.14R HAVELOCK CLEAR 53 46 77 CALM 30.13R KENANSVILLE CLEAR 47 46 93 CALM 30.13R KINSTON CLEAR 46 45 93 CALM 30.13R NEW BERN CLEAR 51 47 86 CALM 30.13R RICHLANDS CLEAR 48 45 87 CALM 30.13R ROCKY MOUNT CLEAR 47 45 93 CALM 30.12R WASHINGTON CLEAR 49 45 85 CALM 30.13R WHITEVILLE CLEAR 52 48 88 CALM 30.11R $$ AMZ130-135-150-152-154-156-158-170-250-252-270-ANZ085-086-088-633-658-670-200200- MARINE OBSERVATIONS STATION/POSITION TIME TEMP WIND PRES WAVE SWELL AIR SEA DIR/SP/G HT/PER HT/PER (UTC) (F) (DEG/KT/KT) (MB) (FT/S) (FT/S) CHESAPEAKE LIGHT 0000 59 340/ 16/ 18 1019.4 64 E VA BEACH 0100 60 69 330/ 19/ 23 1018.4 6/ 6 2/14 DUCK 0100 60 69 330/ 10/ 12 1018.8 2 E DUCK 0100 N/A 5/ 7 2/13 10 NE DUCK 0100 71 N/A 5/ 6 2/15 OREGON INLET 0100 57 70 330/ 7/ 10 1019.4 13E OREGON INLT 0100 74 N/A 5/ 7 2/15 HATTERAS CG 0100 63 68 330/ 15/ 19 1019.9 DIAMOND BUOY 0100 62 330/ 14/ 17 1019.3 4/ 8 3/ 8 17 S OCRACOKE 0000 VRB 14/ 19 1018.9 CAPE LOOKOUT 0000 62 350/ 8/ 10 1019.3 BEAUFORT LAB 0100 58 70 40/ 3/ 4 1019.0 30 SE NEW RIVER 0100 65 76 360/ 10/ 16 1019.1 2/10 2/10 5 SE WRIGHTSVLE 0000 62 74 10/ 12/ 14 N/A 225 S CAPE HAT 0025 70 80 360/ 14/ 19 1018.5 7/ 7 41 SE CHARLESTON 0100 68 79 30/ 6/ 10 1019.2 3/ 6 3/ 6 $$

USA.gov is the U.S. government's official web portal to all federal, state and local government web resources and services.